Regional Weather Roundup
Issued by NWS

Home | Current Version | Previous Version | Graphics & Text | Print | Product List | Glossary On
Versions: 1 2 3 4 5 6 7 8 9 10 11 12 13 14 15 16 17 18 19 20 21 22 23 24 25 26 27 28 29 30 31 32 33 34 35 36 37 38 39 40 41 42 43 44 45 46 47 48 49 50
000
ASUS43 KDMX 230501
RWRIA

WEATHER ROUNDUP FOR IOWA
NATIONAL WEATHER SERVICE DES MOINES IA
1200 AM CDT WED MAY 23 2018

NOTE: "FAIR" INDICATES FEW OR NO CLOUDS BELOW 12,000 FEET WITH NO
SIGNIFICANT WEATHER AND/OR OBSTRUCTIONS TO VISIBILITY.

* - THESE STATIONS ARE NOT NWS STATIONS...THUS NOT UNDER NWS
QUALITY CONTROL.  THEY ALSO DO NOT REPORT WEATHER SUCH
AS PRECIPITATION OR FOG.

IAZ001>003-012>014-020>022-031>034-043>046-230600-
   NORTHWEST IOWA

CITY           SKY/WX    TMP DP  RH WIND       PRES   REMARKS
CARROLL *      PTCLDY   N/A N/A N/A SE8       30.01S
CHEROKEE *     MOCLDY    68  64  86 S6        29.99F
DENISON *      CLEAR     68  64  88 SE13      30.01S
LE MARS *      PTCLDY    70  63  78 SE7       29.97S
ORANGE CITY *  PTCLDY    70  61  73 SE6       29.99S
SHELDON *      CLOUDY    70  64  83 SE10      29.98S
SIOUX CITY     CLOUDY    67  64  90 E9        29.96S
SPENCER        LGT RAIN  69  63  81 SE8       30.02R
STORM LAKE *   CLOUDY    68  63  83 SE10      30.01S
$$

IAZ055>058-069>071-079>083-090>094-230600-
   SOUTHWEST IOWA

CITY           SKY/WX    TMP DP  RH WIND       PRES   REMARKS
ATLANTIC *     CLEAR     70  64  83 S6        30.02R
AUDUBON *      CLOUDY    66  63  88 CALM      30.04R
CLARINDA *     CLEAR     68  61  77 CALM      30.04S
COUNCIL BLFS * MOCLDY    72  70  94 S10       30.00S
CRESTON *      CLEAR     68  63  83 SE8       30.06R
HARLAN  *      PTCLDY    70  64  83 S8        30.04S
LAMONI         PTCLDY    71  61  70 SE7       30.05R
RED OAK *      CLEAR     70  63  78 MISG      30.02R
SHENANDOAH *   CLEAR     72  63  73 SE9       30.01S
$$

IAZ047>049-059>061-072>074-084-230600-
   CENTRAL IOWA

CITY           SKY/WX    TMP DP  RH WIND       PRES   REMARKS
AMES           CLOUDY    70  63  78 E5        30.04R
ANKENY *       MOCLDY    70  63  78 SE7       30.05R
BOONE *        CLOUDY    70  63  78 SE10      30.03S
CHARITON *       N/A     66  63  88 SE6       30.06R
DES MOINES     CLOUDY    73  63  70 SE9       30.03S
GRINNELL*      PTCLDY    67  61  80 SE8       30.07F
KNOXVILLE *    PTCLDY    70  63  78 E6        30.05R
MARSHALLTOWN   PTCLDY    67  64  90 SE8       30.05S
NEWTON *       MOCLDY    70  63  78 SE9G15    30.05S
PELLA *        PTCLDY    69  62  78 SE5       30.07R
PERRY *        CLOUDY    71  63  75 SE8       30.03S
$$

IAZ004>006-015-016-023>025-035-036-230600-
   NORTH CENTRAL IOWA

CITY           SKY/WX    TMP DP  RH WIND       PRES   REMARKS
ALGONA *       CLOUDY    72  63  73 S12       30.03S
CLARION *      CLOUDY    70  63  78 SE10      30.04S
ESTHERVILLE    TSTM      67  62  84 SE8       30.02R
FORT DODGE *   TSTM      68  65  90 SE12      30.04R FOG
MASON CITY     CLOUDY    67  60  78 SE12      30.06S
FOREST CITY *  FAIR      68  61  77 SE5       30.05R
WEBSTER CITY * CLOUDY    70  63  78 SE8       30.02S
IOWA FALLS *   CLOUDY    68  64  86 SE6       30.07R
$$

IAZ007>011-017>019-026>030-037>042-050>054-066-230600-
   NORTHEAST IOWA

CITY           SKY/WX    TMP DP  RH WIND       PRES   REMARKS
CEDAR RAPIDS   FAIR      64  61  90 SE7       30.08R
CHARLES CITY * FAIR      64  59  82 E10       30.08S
CLINTON *      FAIR     N/A N/A N/A E7        30.11R
DECORAH *      CLOUDY    61  61 100 SE5       30.08S
DUBUQUE        FAIR      59  56  89 CALM      30.11R
MONTICELLO *   FAIR      63  61  94 E3        30.09S
OELWEIN *      MOCLDY    63  61  94 SE9       30.09S
WATERLOO       FAIR      66  61  84 SE8       30.06S
$$

IAZ064-065-067-068-078-230600-
   EAST CENTRAL IOWA

CITY           SKY/WX    TMP DP  RH WIND       PRES   REMARKS
DAVENPORT      FAIR      62  58  86 E7        30.11S
IOWA CITY      FAIR      67  60  78 E5        30.09R
MUSCATINE *    FAIR      64  59  82 CALM      30.09R
QUAD CITIES    FAIR      62  59  90 E3        30.08S
$$

IAZ062-063-075>077-085>089-095>099-230600-
   SOUTHEAST IOWA

CITY           SKY/WX    TMP DP  RH WIND       PRES   REMARKS
BURLINGTON     CLEAR     68  60  75 E6        30.08R
FAIRFIELD *    MOCLDY    66  61  82 E6        30.07R
FORT MADISON * CLEAR     66  63  88 CALM      30.09R
KEOKUK *       CLEAR     68  61  77 SE5       30.07S
OSKALOOSA *    FAIR      67  62  82 SE6       30.07S
CENTERVILLE *    N/A     66  66 100 CALM      30.08R
OTTUMWA        CLEAR     67  61  81 SE8       30.06R
WASHINGTON *   PTCLDY    66  66 100 E7        30.09R
$$

ABBREVIATIONS USED IN REMARKS
   TC - TEMPERATURES IN CELSIUS
  WCI - WIND CHILL INDEX
   HX - HEAT INDEX
  VSB - VISIBILITY
$$





USA.gov is the U.S. government's official web portal to all federal, state and local government web resources and services.